Weather in Bauru

Brazil     22°19′40″S   49°03′55″W
temp.,
°C
wind,
m/s
gust,
m/s
humid.,
%
clouds,
%
prec.,
mm/h
press.,
hPa
HPBL,
m
22 april, thu
thu2200:00+16se312900 0.0 1017403
03:00+15se412910 0.0 1015429
06:00+15se312941 0.0 1016459
09:00+21ese58640 0.0 1017848
12:00+25ese34450 0.0 10161566
15:00+27se32373 0.0 10132264
18:00+20se410620 0.0 1014407
21:00+17se412720 0.0 1016334
23 april, fri
fri2300:00+16se513770 0.0 1017443
03:00+14se413890 0.0 1016420
06:00+14se311930 0.0 1017362
09:00+19ese47690 0.0 1018494
12:00+25ese21410 0.0 10151262
15:00+27s22300 0.0 10121753
18:00+20sse22540 0.0 101214
21:00+17sse36660 0.0 1014103
24 april, sat
sat2400:00+16se411760 0.0 1015257
03:00+14se39881 0.0 1014196
06:00+13se38935 0.0 1015170
09:00+19ese3564100 0.0 1016313
12:00+27e11375 0.0 10141013
15:00+29wsw23315 0.0 10111656
18:00+22s2351100 0.0 101238
21:00+20sse225659 0.0 101317
25 april, sun
sun2500:00+19se2660100 0.0 1013103
03:00+18se3858100 0.0 1012176
06:00+17se126299 0.0 101337
09:00+22e234973 0.0 1014239
12:00+29ne233139 0.0 10111216
15:00+30wsw2429100 0.0 10092368
18:00+24ssw3848100 0.0 1010210
21:00+22sw3756100 0.0 1012217
26 april, mon
mon2600:00+21ssw2858100 0.0 1012259
03:00+20ssw2461100 0.0 1012134
06:00+19sse116552 0.0 101132
09:00+23sw225397 0.0 1013458
12:00+28w23383 0.0 10121737
15:00+29w3637100 0.0 10092658
18:00+23w2454100 0.0 101184
21:00+22w225617 0.0 101332